Naples, Italy

6:45 PM CEST on June 25, 2017 (GMT +0200)
Capodichino Mil

Weather History for LIRN - December, 2011

Change the Weather History Date:

Wednesday, December 21, 2011

  Actual Average Record
Temperature  
Mean Temperature 44 °F -  
Max Temperature 48 °F 55 °F 64 °F (1996)
Min Temperature 39 °F 40 °F 30 °F (2002)
Degree Days  
Heating Degree Days 22    
Moisture  
Dew Point 28 °F    
Average Humidity 53    
Maximum Humidity 66    
Minimum Humidity 39    
Precipitation  
Precipitation 0.00 in 0.14 in - ()
Sea Level Pressure  
Sea Level Pressure 29.87 in    
Wind  
Wind Speed 10 mph ()    
Max Wind Speed 22 mph    
Max Gust Speed 32 mph    
Visibility 6.2 miles    
Events      
Averages and records for this station are not official NWS values.
T = Trace of Precipitation, MM = Missing Value Source: Averaged Metar Reports

Daily Weather History Graph

Daily Weather History Graph

Search for Another Location

Airport or City:

Trip Planner

Search our weather history database for the weather conditions in past years. The results will help you decide how hot, cold, wet, or windy it might be!

Date:

Astronomy

Dec. 21, 2011 Rise Set
Actual Time 7:23 AM CET 4:37 PM CET
Civil Twilight 6:52 AM CET 5:08 PM CET
Nautical Twilight 6:17 AM CET 5:43 PM CET
Astronomical Twilight 5:44 AM CET 6:16 PM CET
Moon 3:35 AM CET (12/21) 1:44 PM CET (12/21)
Length of Visible Light 10h 16m
Length of Day
9h 14m
Waning Crescent, 14% of the Moon is Illuminated
Dec 21
Waning Crescent
Dec 24
New
Jan 1
First Quarter
Jan 9
Full
Jan 16
Last Quarter

Hourly Weather History & Observations

Time (CET) Temp. Windchill Dew Point Humidity Pressure Visibility Wind Dir Wind Speed Gust Speed Precip Events Conditions
12:20 AM 39.2 °F 35.0 °F 24.8 °F 56% 29.86 in 6.2 mi NE 5.8 mph - N/A   Scattered Clouds
12:50 AM 39.2 °F 35.0 °F 24.8 °F 56% 29.86 in 6.2 mi NE 5.8 mph - N/A   Scattered Clouds
1:20 AM 39.2 °F 35.0 °F 24.8 °F 56% 29.83 in 6.2 mi NNE 5.8 mph - N/A   Scattered Clouds
1:50 AM 39.2 °F 34.2 °F 24.8 °F 56% 29.83 in 6.2 mi North 6.9 mph - N/A   Scattered Clouds
2:20 AM 41.0 °F 35.8 °F 24.8 °F 53% 29.83 in 6.2 mi NNE 8.1 mph - N/A   Scattered Clouds
2:50 AM 41.0 °F 36.4 °F 24.8 °F 53% 29.83 in 6.2 mi NNE 6.9 mph - N/A   Scattered Clouds
3:20 AM 41.0 °F 36.4 °F 26.6 °F 57% 29.83 in 6.2 mi North 6.9 mph - N/A   Scattered Clouds
3:50 AM 41.0 °F 35.8 °F 24.8 °F 53% 29.80 in 6.2 mi North 8.1 mph - N/A   Scattered Clouds
4:20 AM 41.0 °F 35.8 °F 24.8 °F 53% 29.80 in 6.2 mi NNE 8.1 mph - N/A   Scattered Clouds
4:50 AM 41.0 °F 35.2 °F 23.0 °F 49% 29.80 in 6.2 mi North 9.2 mph - N/A   Scattered Clouds
5:20 AM 42.8 °F 37.0 °F 21.2 °F 42% 29.83 in 6.2 mi NNE 10.4 mph - N/A   Scattered Clouds
5:50 AM 42.8 °F 36.2 °F 19.4 °F 39% 29.83 in 6.2 mi NNE 12.7 mph - N/A   Mostly Cloudy
6:20 AM 42.8 °F 35.8 °F 19.4 °F 39% 29.83 in 6.2 mi NE 13.8 mph - N/A   Mostly Cloudy
6:50 AM 42.8 °F 36.6 °F 19.4 °F 39% 29.83 in 6.2 mi NNE 11.5 mph - N/A   Mostly Cloudy
7:20 AM 42.8 °F 36.2 °F 19.4 °F 39% 29.86 in 6.2 mi NNE 12.7 mph - N/A   Mostly Cloudy
7:50 AM 42.8 °F 36.2 °F 21.2 °F 42% 29.86 in 6.2 mi NNE 12.7 mph - N/A   Mostly Cloudy
8:20 AM 42.8 °F 37.0 °F 24.8 °F 49% 29.86 in - NNE 10.4 mph - N/A   Clear
8:50 AM 42.8 °F 36.2 °F 24.8 °F 49% 29.86 in - NE 12.7 mph - N/A   Clear
9:20 AM 42.8 °F 36.6 °F 26.6 °F 53% 29.89 in - NE 11.5 mph - N/A   Clear
9:50 AM 42.8 °F 37.5 °F 26.6 °F 53% 29.89 in - NE 9.2 mph - N/A   Clear
10:20 AM 44.6 °F 37.4 °F 26.6 °F 49% 29.89 in - ENE 16.1 mph - N/A   Clear
10:50 AM 46.4 °F 38.5 °F 28.4 °F 50% 29.89 in - NE 21.9 mph - N/A   Clear
11:20 AM 46.4 °F 38.7 °F 28.4 °F 50% 29.89 in 6.2 mi NE 20.7 mph - N/A   Partly Cloudy
11:50 AM 46.4 °F 39.2 °F 30.2 °F 53% 29.89 in 6.2 mi NE 18.4 mph - N/A   Partly Cloudy
12:20 PM 48.2 °F - 32.0 °F 54% 29.89 in 6.2 mi ENE 20.7 mph - N/A   Partly Cloudy
12:50 PM 48.2 °F - 32.0 °F 54% 29.89 in 6.2 mi NE 20.7 mph 32.2 mph N/A   Partly Cloudy
1:20 PM 48.2 °F - 32.0 °F 54% 29.86 in 6.2 mi ENE 19.6 mph - N/A   Partly Cloudy
1:50 PM 48.2 °F - 32.0 °F 54% 29.86 in - ENE 16.1 mph - N/A   Clear
2:20 PM 48.2 °F - 32.0 °F 54% 29.86 in - NE 18.4 mph - N/A   Clear
2:50 PM - - - N/A% - - ENE 17.3 mph - N/A   Unknown
3:20 PM 48.2 °F - 32.0 °F 54% 29.86 in - NE 16.1 mph - N/A   Clear
3:50 PM 48.2 °F - 30.2 °F 50% 29.89 in - NE 11.5 mph - N/A   Clear
4:20 PM 46.4 °F 40.7 °F 32.0 °F 57% 29.89 in - ENE 12.7 mph - N/A   Clear
4:50 PM 46.4 °F 40.7 °F 32.0 °F 57% 29.89 in - NE 12.7 mph - N/A   Clear
5:20 PM 44.6 °F 39.7 °F 32.0 °F 61% 29.89 in 6.2 mi NE 9.2 mph - N/A   Partly Cloudy
5:50 PM 44.6 °F 39.2 °F 32.0 °F 61% 29.89 in - NNE 10.4 mph - N/A   Clear
6:20 PM 44.6 °F 40.7 °F 32.0 °F 61% 29.89 in 6.2 mi North 6.9 mph - N/A   Partly Cloudy
6:50 PM 44.6 °F 40.2 °F 32.0 °F 61% 29.89 in - NNE 8.1 mph - N/A   Clear
7:20 PM 42.8 °F 37.5 °F 32.0 °F 66% 29.92 in - NNE 9.2 mph - N/A   Clear
7:50 PM 44.6 °F 39.7 °F 32.0 °F 61% 29.92 in - North 9.2 mph - N/A   Clear
8:20 PM 44.6 °F 40.7 °F 32.0 °F 61% 29.89 in - NNE 6.9 mph - N/A   Clear
10:50 PM 44.6 °F 39.7 °F 32.0 °F 61% 29.92 in - North 9.2 mph - N/A   Clear
11:20 PM 44.6 °F 39.7 °F 32.0 °F 61% 29.92 in - North 9.2 mph - N/A   Clear
11:50 PM 42.8 °F 38.0 °F 32.0 °F 66% 29.92 in - NNE 8.1 mph - N/A   Clear